Location: Sternwarte Hubelmatt
(47.0367°N, 8.3053°E)
Time: 05:55:58
(UTC+02:00)

UKube-1 - Visible Passes

Search period start: 16 April 2024 00:00
Search period end: 26 April 2024 00:00
Orbit: 589 x 591 km, 98.3° (Epoch: 15 April)

Date Brightness Start Highest point End Pass type
(mag) Time Alt. Az. Time Alt. Az. Time Alt. Az.
16 Apr ? 01:23:35 10° NE 01:23:59 12° NE 01:23:59 12° NE visible
16 Apr ? 02:58:04 10° N 03:00:32 32° NNW 03:00:32 32° NNW visible
17 Apr ? 01:31:19 10° NE 01:32:12 14° NE 01:32:12 14° NE visible
17 Apr ? 03:06:09 10° N 03:08:44 31° NNW 03:08:44 31° NNW visible
18 Apr ? 01:39:05 10° NE 01:40:23 16° NE 01:40:23 16° NE visible
18 Apr ? 03:14:15 10° N 03:16:55 29° NW 03:16:55 29° NW visible
19 Apr ? 01:46:53 10° NE 01:48:32 20° NE 01:48:32 20° NE visible
19 Apr ? 03:22:20 10° N 03:25:05 27° NW 03:25:05 27° NW visible
20 Apr ? 01:54:42 10° NNE 01:56:40 23° NE 01:56:40 23° NE visible
20 Apr ? 03:30:25 10° N 03:33:13 24° NW 03:33:13 24° NW visible
21 Apr ? 02:02:32 10° NNE 02:04:47 27° NE 02:04:47 27° NE visible
21 Apr ? 03:38:32 10° NNW 03:41:19 21° NW 03:41:19 21° NW visible
22 Apr ? 02:10:22 10° NNE 02:12:52 32° NE 02:12:52 32° NE visible
22 Apr ? 03:46:39 10° NNW 03:49:24 18° WNW 03:49:24 18° WNW visible
23 Apr ? 02:18:12 10° NNE 02:20:56 37° NE 02:20:56 37° NE visible
23 Apr ? 03:54:48 10° NNW 03:57:20 16° WNW 03:57:28 16° WNW visible
24 Apr ? 02:26:01 10° NNE 02:28:58 44° NNE 02:28:58 44° NNE visible
24 Apr ? 04:03:02 10° NNW 04:05:06 14° WNW 04:05:30 13° WNW visible
25 Apr ? 02:33:51 10° NNE 02:36:59 50° NNE 02:36:59 50° NNE visible
25 Apr ? 04:11:24 10° NW 04:12:51 12° WNW 04:13:32 11° WNW visible
